Location: Appleton
(44.2618°N, 88.4157°W)
Time: 18:58:03
(UTC+00:00)

Vanguard 1 Rocket - Visible Passes

Search period start: 28 February 2021 00:00
Search period end: 10 March 2021 00:00
Orbit: 654 x 4222 km, 34.3° (Epoch: 28 February)

Date Brightness Start Highest point End Pass type
(mag) Time Alt. Az. Time Alt. Az. Time Alt. Az.
28 Feb 10.9 06:48:06 41° ESE 06:48:06 41° ESE 07:04:41 10° E visible
28 Feb 10.5 09:05:20 49° SW 09:13:40 63° S 09:33:47 10° E visible
28 Feb 10.4 11:22:33 15° W 11:44:34 59° SSW 11:59:49 10° ESE visible
01 Mar 11.3 05:40:23 24° ESE 05:40:23 24° ESE 05:49:50 10° E visible
01 Mar 10.5 07:57:37 57° S 07:58:54 58° SSE 08:21:03 10° E visible
01 Mar 10.5 10:14:50 31° WSW 10:30:34 64° S 10:48:32 10° ESE visible
02 Mar 11.7 04:32:38 10° E 04:32:38 10° E 04:32:57 10° E visible
02 Mar 10.8 06:49:51 45° SE 06:49:51 45° SE 07:07:29 10° E visible
02 Mar 10.5 09:07:05 49° SW 09:15:54 65° S 09:36:32 10° E visible
02 Mar 10.5 11:24:19 14° W 11:46:47 56° SSW 12:02:26 10° SE visible
03 Mar 11.2 05:42:06 28° ESE 05:42:06 28° ESE 05:52:50 10° E visible
03 Mar 10.4 07:59:19 61° S 08:00:59 61° SSE 08:23:46 10° E visible
03 Mar 10.5 10:16:33 29° WSW 10:32:50 63° SSW 10:51:14 10° ESE visible
04 Mar 11.6 04:34:19 13° E 04:34:19 13° E 04:36:39 10° E visible
04 Mar 10.7 06:51:32 50° SE 06:51:32 50° SE 07:10:10 10° E visible
04 Mar 10.5 09:08:46 48° SW 09:18:07 66° S 09:39:14 10° ESE visible
04 Mar 10.6 11:25:59 12° W 11:48:53 52° SSW 12:04:53 10° SE visible
05 Mar 11.1 05:43:45 31° ESE 05:43:45 31° ESE 05:55:36 10° E visible
05 Mar 10.4 08:00:58 63° S 08:03:07 64° S 08:26:25 10° E visible
05 Mar 10.5 10:18:11 28° W 10:35:01 61° SSW 10:53:49 10° ESE visible
06 Mar 11.6 04:35:58 16° E 04:35:58 16° E 04:39:49 10° E visible
06 Mar 10.6 06:53:10 54° SE 06:53:10 54° SE 07:12:46 10° E visible
06 Mar 10.5 09:10:23 47° WSW 09:20:20 65° S 09:41:51 10° ESE visible
06 Mar 10.6 11:27:37 11° W 11:50:49 48° SSW 12:07:10 10° SE visible
07 Mar11.203:28:10ENE03:28:10ENE02:52:21Svisible
07 Mar 11.0 05:45:23 35° ESE 05:45:23 35° ESE 05:58:14 10° E visible
07 Mar 10.4 08:02:36 63° SSW 08:05:16 65° S 08:29:01 10° E visible
07 Mar 10.6 10:19:49 26° W 10:37:06 57° SSW 10:56:15 10° SE visible
08 Mar 11.3 04:37:36 18° E 04:37:36 18° E 04:42:39 10° E visible
08 Mar 10.5 06:54:50 57° SE 06:54:50 57° SE 07:15:19 10° E visible
08 Mar 10.5 09:12:03 45° WSW 09:22:30 64° S 09:44:22 10° ESE visible
08 Mar 10.7 11:29:42 10° W 11:52:38 43° SW 12:09:13 10° SSE visible
09 Mar11.003:29:50E03:29:50E02:56:14Svisible
09 Mar 11.0 05:47:04 37° ESE 05:47:04 37° ESE 06:00:45 10° E visible
09 Mar 10.3 08:04:18 63° SSW 08:07:27 66° S 08:31:33 10° ESE visible
09 Mar 10.6 10:21:31 24° W 10:39:04 53° SSW 10:58:31 10° SE visible
